Weather History for Tallahassee, FL

Change the Weather History Date:

Wednesday, January 2, 2013

  Actual Average Record
Temperature  
Mean Temperature 64 °F 51 °F  
Max Temperature 69 °F 63 °F 80 °F (1996)
Min Temperature 59 °F 39 °F 18 °F (1928)
Degree Days  
Heating Degree Days 1    
Month to date heating degree days 8  
Since 1 July heating degree days 533  
Cooling Degree Days 0    
Month to date cooling degree days 0  
Year to date cooling degree days 0  
Growing Degree Days 14 (Base 50)    
Moisture  
Dew Point 59 °F    
Average Humidity 80    
Maximum Humidity 93    
Minimum Humidity 67    
Precipitation  
Precipitation 0.03 in 0.12 in 1.96 in (1967)
Month to date precipitation 0.03 0.24  
Year to date precipitation 0.03 0.24  
Sea Level Pressure  
Sea Level Pressure 30.03 in    
Wind  
Wind Speed 5 mph (NW)    
Max Wind Speed 15 mph    
Max Gust Speed 20 mph    
Visibility 9 miles    
Events Rain    
T = Trace of Precipitation, MM = Missing Value Source: NWS Daily Summary

Daily Weather History Graph

Daily Weather History Graph

Search for Another Location

Airport:

Trip Planner

Search our weather history database for the weather conditions in past years. The results will help you decide how hot, cold, wet, or windy it might be!

Date:

Astronomy

Jan. 02, 2013 Rise Set
Actual Time 7:34 AM EST 5:48 PM EST
Civil Twilight 7:08 AM EST 6:15 PM EST
Nautical Twilight 6:38 AM EST 6:45 PM EST
Astronomical Twilight 6:09 AM EST 7:14 PM EST
Moon 10:55 PM EST (1/2) 10:38 AM EST (1/2)
Length of Visible Light 11h 07m
Length of Day
10h 14m
Waning Gibbous, 75% of the Moon is Illuminated
Jan 2
Waning Gibbous
Jan 4
Last Quarter
Jan 11
New
Jan 18
First Quarter
Jan 26
Full

Hourly Weather History & Observations

Time (EST) Temp. Dew Point Humidity Pressure Visibility Wind Dir Wind Speed Gust Speed Precip Events Conditions
12:53 AM 66.0 °F 63.0 °F 90% 29.99 in 7.0 mi SSW 6.9 mph - N/A   Overcast
1:53 AM 66.9 °F 64.0 °F 90% 29.98 in 10.0 mi SSW 5.8 mph - N/A   Overcast
2:53 AM 68.0 °F 64.0 °F 87% 29.98 in 10.0 mi SW 5.8 mph - N/A   Overcast
3:53 AM 68.0 °F 64.9 °F 90% 29.98 in 10.0 mi SW 5.8 mph - N/A   Overcast
4:53 AM 69.1 °F 64.9 °F 87% 29.97 in 10.0 mi SW 6.9 mph - N/A   Overcast
5:53 AM 68.0 °F 64.9 °F 90% 29.97 in 10.0 mi SSW 6.9 mph - 0.00 in   Overcast
6:16 AM 68.0 °F 64.4 °F 88% 29.97 in 10.0 mi SSW 4.6 mph - N/A   Overcast
6:53 AM 68.0 °F 64.9 °F 90% 29.98 in 10.0 mi SSW 5.8 mph - N/A   Overcast
7:36 AM 68.0 °F 64.4 °F 88% 29.98 in 10.0 mi SSW 4.6 mph - N/A   Overcast
7:53 AM 68.0 °F 64.9 °F 90% 29.99 in 9.0 mi SW 5.8 mph - N/A   Overcast
8:02 AM 66.2 °F 62.6 °F 88% 30.00 in 7.0 mi NW 12.7 mph 17.3 mph 0.00 in Rain Light Rain
8:04 AM 66.2 °F 62.6 °F 88% 30.00 in 6.0 mi NNW 12.7 mph 18.4 mph 0.00 in Rain Light Rain
8:13 AM 64.4 °F 60.8 °F 88% 30.01 in 6.0 mi NNW 11.5 mph - 0.00 in Rain Light Rain
8:53 AM 63.0 °F 59.0 °F 87% 30.03 in 7.0 mi NNW 6.9 mph - 0.01 in Rain Light Rain
9:53 AM 60.8 °F 57.2 °F 88% 30.06 in 4.0 mi NNW 9.2 mph - N/A Rain Light Rain
10:53 AM 61.0 °F 57.0 °F 87% 30.07 in 10.0 mi NNW 6.9 mph - 0.00 in   Overcast
11:53 AM 61.0 °F 57.0 °F 87% 30.07 in 10.0 mi NNW 6.9 mph - 0.01 in   Overcast
12:53 PM 61.0 °F 55.9 °F 83% 30.05 in 10.0 mi North 4.6 mph - N/A   Overcast
1:53 PM 62.1 °F 55.9 °F 80% 30.03 in 10.0 mi NNW 5.8 mph - N/A   Overcast
2:14 PM 62.6 °F 55.4 °F 77% 30.02 in 10.0 mi Variable 4.6 mph - N/A   Overcast
2:53 PM 63.0 °F 55.0 °F 75% 30.01 in 10.0 mi NNE 5.8 mph - N/A   Overcast
3:44 PM 64.4 °F 55.4 °F 73% 30.03 in 10.0 mi NNW 4.6 mph - N/A   Overcast
3:53 PM 64.0 °F 55.0 °F 73% 30.03 in 10.0 mi Calm Calm - N/A   Overcast
4:53 PM 64.9 °F 54.0 °F 68% 30.03 in 10.0 mi North 4.6 mph - N/A   Scattered Clouds
5:22 PM 62.6 °F 53.6 °F 72% 30.04 in 10.0 mi North 3.5 mph - N/A   Overcast
5:53 PM 63.0 °F 54.0 °F 72% 30.04 in 10.0 mi NNE 3.5 mph - N/A   Overcast
6:00 PM 62.6 °F 53.6 °F 72% 30.04 in 10.0 mi Calm Calm - N/A   Overcast
6:53 PM 62.1 °F 54.0 °F 75% 30.06 in 10.0 mi Calm Calm - N/A   Overcast
7:53 PM 62.1 °F 54.0 °F 75% 30.09 in 10.0 mi NNW 3.5 mph - N/A   Overcast
8:53 PM 61.0 °F 54.0 °F 78% 30.10 in 10.0 mi NNW 5.8 mph - N/A   Overcast
9:53 PM 61.0 °F 53.1 °F 75% 30.12 in 10.0 mi NNW 4.6 mph - N/A   Overcast
10:53 PM 60.1 °F 53.1 °F 78% 30.11 in 10.0 mi Calm Calm - N/A   Overcast
11:53 PM 59.0 °F 52.0 °F 78% 30.09 in 10.0 mi Calm Calm - N/A   Overcast